This is the latest recevied weather packets stored in our database for station/object N4HAC. If no packets are shown the sender has not sent any weather packets the latest 10 day(s).
| Time | Temp. | Humidity | Pressure | Rain* | Wind** | Luminosity | Snow |
|---|---|---|---|---|---|---|---|
| 1777160038 | 12.78° C | 99% | 1005.7 hPa | 1.78 mm | - | 5 W/m² | - |
| 1777159734 | 12.78° C | 99% | 1005.9 hPa | 1.78 mm | - | 3 W/m² | - |
| 1777159430 | 12.78° C | 99% | 1005.6 hPa | 3.05 mm | - | 5 W/m² | - |
| 1777159126 | 12.78° C | 99% | 1005.6 hPa | 1.78 mm | - | 5 W/m² | - |
| 1777158823 | 12.78° C | 99% | 1005.3 hPa | 0 mm | - | 9 W/m² | - |
| 1777158522 | 12.78° C | 99% | 1005.5 hPa | 0 mm | - | 5 W/m² | - |
| 1777158218 | 13.33° C | 99% | 1005.6 hPa | 0 mm | - | 7 W/m² | - |
| 1777157913 | 13.33° C | 99% | 1005.5 hPa | 0 mm | - | 13 W/m² | - |
| 1777157610 | 13.33° C | 99% | 1005.5 hPa | 0 mm | - | 20 W/m² | - |
| 1777157307 | 13.33° C | 99% | 1005.6 hPa | 0 mm | - | 22 W/m² | - |
| 1777157005 | 13.33° C | 99% | 1005.6 hPa | 0 mm | - | 22 W/m² | - |
| 1777156700 | 13.33° C | 99% | 1005.5 hPa | 0 mm | - | 25 W/m² | - |
| 1777156398 | 13.33° C | 99% | 1005.5 hPa | 0 mm | - | 24 W/m² | - |
| 1777156094 | 13.33° C | 99% | 1005.5 hPa | 0 mm | - | 32 W/m² | - |
| 1777155791 | 13.33° C | 99% | 1005.5 hPa | 0 mm | - | 31 W/m² | - |
| 1777155486 | 13.33° C | 99% | 1005.4 hPa | 0 mm | - | 41 W/m² | - |
| 1777155184 | 13.33° C | 99% | 1005.5 hPa | 0 mm | - | 41 W/m² | - |
| 1777154880 | 13.33° C | 99% | 1005.7 hPa | 0 mm | - | 39 W/m² | - |
| 1777154577 | 13.33° C | 99% | 1005.6 hPa | 0 mm | - | 51 W/m² | - |
| 1777154273 | 13.33° C | 99% | 1005.4 hPa | 0 mm | - | 38 W/m² | - |
| 1777153969 | 13.33° C | 99% | 1005.4 hPa | 0 mm | - | 36 W/m² | - |
| 1777153664 | 13.33° C | 99% | 1005.8 hPa | 0 mm | - | 26 W/m² | - |
| 1777153361 | 13.33° C | 99% | 1005.8 hPa | 0 mm | - | 23 W/m² | - |
| 1777153057 | 13.33° C | 99% | 1005.4 hPa | 0 mm | - | 37 W/m² | - |
| 1777152754 | 13.33° C | 99% | 1005.3 hPa | 0 mm | - | 52 W/m² | - |
* Rain latest hour (hover to see other rain measurements)
** Current wind speed in m/s (hover to see current wind gust speed)